AMAZONAS 5 (42934 NORAD) Tracking and Keplerian Element Data

This shows tracking and keplerian element data for the satellite.

Feedback or suggestion? Click here.




ElementValue
Catalog42934
NameAMAZONAS 5
Epoch Orbit1479
Epoch Day269.8948272
Epoch Year2021
RAAN330.3346
Inclination0.0439
Eccentricity0.0002414
Argument of Perigee248.8922
Mean Anonmoly47.8294
Mean Motion1.00272252
Decay Rate-2.84E-06
L11 42934U 17053A 21269.89482720 -.00000284 00000-0 00000-0 0 9993
L22 42934 0.0439 330.3346 0002414 248.8922 47.8294 1.00272252 14794

Live tracking and technical data element details for AMAZONAS 5 (NORAD 42934). AMAZONAS 5 can be tracked NOW for your location showing map with azimuth and elevation plus other details from your city location.

Track the satellite on the map from your city or location and see movement details for azimuth, elevation, latitude, longitude, range, height, and movement on the map or in text.







IsCatalogInMostPopularTable: catalog: 42934, numindb: 584
Update: records affected: 1



GetName: 42934 AMAZONAS 5

Hit Count: updated at: Mon, 27 Sep 2021 23:19:05 GMT